Wind_Speed
61 62 61 59 56 54 54 54 52 51 50 49 47 46 46 46 47 48 49 49 50 50 50 50 54 60 66 71 73 71 66 60 55 53 53 52 53 54 57 59 62 64 67 71 74 78 80 80 79 76 74 71 68 65 64 64 66 69 70 70 69 66 64 64 64 64 65 66 66 66 66 66 66 67 67 67 65 61 59 57 54 51 50 50 50 50
59 60 59 58 56 54 53 53 52 50 49 48 47 45 45 45 45 47 48 49 49 48 47 47 49 53 59 65 70 72 70 66 61 57 55 53 53 53 55 57 59 61 64 67 71 76 79 80 80 78 76 73 70 67 65 64 64 66 68 70 70 69 68 66 65 65 65 66 66 65 66 67 68 68 69 69 67 65 62 59 55 51 49 50 50 50
57 57 58 57 55 53 51 51 50 49 49 47 46 45 45 45 46 47 48 48 48 47 45 44 45 48 52 58 64 68 69 68 65 61 58 56 54 53 53 54 56 58 60 64 68 73 77 79 80 80 78 75 72 69 67 65 64 65 67 68 69 70 70 69 67 67 67 68 67 67 67 68 69 69 69 68 67 65 64 61 56 51 49 49 50 51
56 56 57 56 54 52 51 49 49 49 48 47 46 45 45 45 46 47 48 48 47 46 44 43 43 45 48 52 57 62 66 67 67 64 62 59 57 55 53 53 53 55 57 61 65 70 74 77 79 80 79 77 74 71 69 67 65 65 65 66 67 69 69 69 69 69 70 71 71 71 71 71 70 69 68 67 65 64 64 61 56 51 49 49 50 51
55 55 56 55 54 52 51 50 49 48 48 47 45 45 44 45 46 46 46 46 46 45 44 43 43 43 44 47 51 56 61 64 65 65 64 62 60 57 54 53 52 53 54 57 62 67 72 75 78 79 79 77 75 73 71 68 66 65 64 64 65 66 67 67 67 68 70 71 72 73 72 71 70 69 67 65 62 62 64 61 57 52 50 50 51 51
54 53 53 53 53 52 51 49 48 48 47 46 45 44 44 44 44 44 44 44 45 45 44 44 43 42 42 43 45 49 54 59 62 64 64 64 63 60 57 55 53 52 52 54 58 63 68 72 75 77 77 77 75 74 72 70 67 65 63 62 63 64 64 63 63 63 64 66 67 68 68 68 68 67 65 63 62 63 64 62 57 53 52 51 51 52
53 52 52 52 52 52 51 49 48 46 45 44 44 43 43 42 42 42 43 44 44 45 45 44 44 43 41 40 41 43 48 52 57 60 62 64 64 63 61 58 55 53 52 52 55 59 64 68 72 74 75 75 74 73 71 70 68 65 62 62 62 62 62 61 59 58 58 59 61 62 63 63 64 64 63 62 63 65 65 62 57 54 52 52 52 53
51 51 50 50 51 51 50 49 47 45 43 43 43 43 42 42 41 41 42 43 44 45 45 45 44 43 40 38 38 39 41 45 49 54 58 61 63 63 63 61 58 56 53 53 53 56 60 65 69 71 73 73 73 72 70 69 67 65 63 62 62 62 62 60 58 56 56 57 58 59 60 60 61 61 61 62 65 66 66 61 57 54 52 52 52 53
50 50 50 50 50 50 49 48 46 44 42 42 42 42 42 42 41 41 42 43 44 44 44 44 43 42 40 38 37 36 38 40 43 47 52 56 59 61 62 62 61 58 56 54 53 54 57 61 65 68 71 72 72 71 69 68 67 65 63 62 62 63 63 62 59 57 55 56 58 59 59 58 58 58 59 62 64 66 65 60 56 54 52 52 52 53
49 49 49 49 49 49 48 48 45 42 41 41 41 42 42 41 41 41 42 43 43 43 43 43 42 41 39 38 37 36 36 37 39 42 46 50 54 58 61 62 62 61 59 56 54 54 55 57 61 64 68 70 70 70 69 68 67 66 65 64 63 64 64 63 60 57 56 57 58 58 58 57 56 56 57 60 63 65 63 59 56 54 53 52 53 54
47 47 48 48 48 47 47 46 44 42 40 40 41 41 40 40 40 41 42 42 42 42 42 42 41 40 39 38 37 37 37 37 37 39 42 46 50 54 58 61 62 62 61 59 56 54 53 54 57 60 64 67 68 69 68 68 68 67 66 65 65 65 65 63 60 57 56 57 57 57 56 54 54 54 56 59 62 63 60 57 55 54 53 53 53 54
46 46 46 47 47 47 46 45 43 41 39 39 40 40 40 39 39 40 42 42 42 41 41 41 41 40 39 38 38 38 37 37 37 37 38 41 46 51 56 60 63 64 63 61 58 55 53 53 53 56 59 63 66 67 68 68 68 68 67 66 65 65 65 64 61 58 57 57 57 56 54 51 51 52 55 58 60 60 57 56 55 53 51 52 53 55
45 45 45 46 46 46 45 44 42 40 39 39 39 39 39 39 39 40 41 42 41 40 40 40 40 39 39 38 38 38 38 38 37 37 36 38 41 46 52 57 62 65 66 64 61 57 54 52 51 52 56 60 64 66 67 68 68 68 67 66 66 65 65 63 61 60 59 58 58 57 54 50 48 50 54 57 58 57 55 54 53 51 50 51 53 56
44 44 44 45 45 45 44 43 41 40 39 39 39 39 39 38 39 39 40 41 40 40 39 39 39 39 38 38 38 38 38 38 37 36 36 36 38 42 46 52 58 63 66 66 64 60 54 49 47 49 52 57 61 64 66 67 68 68 67 66 65 65 64 63 63 62 62 61 61 60 57 53 49 49 51 55 57 56 53 52 51 51 51 53 55 57
43 43 44 44 44 44 43 42 41 40 39 38 38 38 38 38 39 39 40 40 39 38 38 38 38 38 38 38 38 38 37 37 36 36 35 35 36 38 41 46 53 59 63 66 65 61 53 45 42 44 48 54 59 63 66 67 68 68 66 65 64 63 62 63 63 64 65 65 65 64 63 60 56 52 50 51 52 52 50 49 49 50 51 53 55 57
42 42 43 44 44 43 42 41 41 40 39 38 37 37 38 39 39 40 40 39 38 37 37 37 38 38 37 37 37 37 36 36 35 34 33 33 34 35 37 40 46 52 58 63 64 60 50 42 39 40 44 49 56 61 64 67 68 67 66 63 60 58 57 58 60 63 65 66 67 67 67 66 64 60 56 52 50 49 49 49 49 50 51 52 54 56
41 42 43 43 43 42 41 41 41 40 39 38 37 38 38 39 39 39 38 37 37 36 36 37 37 37 37 37 36 36 35 34 33 31 30 30 31 31 32 35 40 46 52 58 61 58 48 40 38 40 42 46 51 57 62 66 68 68 67 64 60 56 54 53 55 57 60 62 64 66 67 68 68 66 63 59 55 53 51 51 51 51 51 52 53 54
41 42 42 43 42 42 41 41 41 40 39 38 38 38 38 38 38 38 37 36 35 35 36 37 37 37 36 36 36 35 33 32 30 28 26 26 27 27 28 31 35 40 45 52 56 54 46 42 41 42 42 44 48 53 59 63 67 69 69 68 64 60 56 53 52 52 54 56 59 61 63 65 66 66 66 63 60 57 54 53 53 52 52 52 53 53
42 42 42 42 42 41 41 41 41 40 40 39 38 38 38 37 37 37 36 35 34 34 35 36 36 36 36 36 35 34 31 29 26 24 23 22 21 21 23 26 30 34 40 47 51 51 46 43 43 44 43 43 44 49 55 59 63 67 69 69 68 64 59 55 51 50 51 53 54 57 59 61 63 64 64 63 61 58 55 54 53 52 52 52 53 53
42 42 42 42 42 42 42 41 41 41 40 39 38 37 37 37 37 36 35 33 32 32 34 35 35 36 36 36 34 32 30 27 24 22 20 17 16 17 19 22 26 30 35 42 47 48 44 43 44 45 44 42 43 46 51 55 59 62 65 66 66 64 61 56 53 51 52 53 54 56 58 60 61 62 62 62 61 58 56 55 53 53 53 53 53 52
42 42 41 41 41 42 42 42 42 41 40 38 36 36 37 36 36 35 34 31 31 32 33 34 35 36 36 35 34 32 29 25 23 20 16 13 13 15 17 19 22 26 31 37 42 44 42 42 44 44 44 42 41 44 48 52 55 58 60 61 62 62 61 59 56 54 54 55 56 57 59 60 61 61 61 61 60 59 57 56 54 54 54 54 54 53
43 43 42 41 41 42 43 43 42 40 37 36 35 35 36 36 35 34 32 30 30 32 34 35 36 37 36 35 33 31 28 24 22 19 14 13 15 17 17 17 18 22 26 33 38 40 40 41 42 42 41 39 39 42 45 49 52 54 56 58 59 61 62 62 60 58 58 58 58 59 60 61 62 62 61 60 59 58 57 56 55 54 54 54 54 53
43 43 42 41 42 43 43 43 41 38 35 34 34 35 34 34 34 33 31 30 31 33 35 37 37 37 36 34 33 30 27 25 21 18 15 16 18 19 16 15 16 18 22 28 33 36 38 39 39 38 37 36 37 40 44 47 50 52 54 56 58 60 62 63 63 62 61 60 60 60 61 61 62 61 61 59 58 58 57 57 56 55 54 54 54 54
43 43 42 42 42 43 43 41 39 35 32 32 32 33 33 33 33 32 31 31 33 35 36 37 38 37 36 34 32 30 27 25 21 18 17 19 21 20 17 15 15 16 19 23 27 30 34 35 35 33 32 33 36 40 43 46 49 51 53 55 57 58 61 62 63 63 62 60 59 58 58 58 59 59 59 59 58 58 58 58 57 56 56 56 55 54
43 43 42 42 42 41 41 39 36 33 31 30 31 31 32 33 33 32 32 32 34 35 36 37 38 38 36 33 32 30 27 24 21 19 20 22 23 21 18 16 15 15 15 18 23 27 30 31 31 29 28 30 34 38 41 44 47 49 52 54 56 57 59 60 61 61 60 58 55 53 53 53 54 55 56 57 57 58 58 58 57 57 57 57 56 54
43 43 42 42 41 40 39 37 34 32 30 30 31 32 32 33 33 32 32 33 35 36 37 38 39 38 36 33 31 30 28 25 22 21 23 25 25 23 20 18 16 14 13 14 18 23 26 27 26 25 25 28 30 32 34 36 40 44 48 51 54 56 57 58 59 58 56 53 50 48 48 48 49 51 53 54 56 56 57 57 57 58 59 58 56 53
42 42 42 41 40 39 37 35 33 31 30 30 31 32 33 33 33 33 34 35 36 37 38 39 40 38 35 32 30 30 28 25 24 24 25 26 26 24 22 19 16 13 12 13 16 19 21 22 22 21 23 26 27 26 25 27 29 34 39 44 49 52 55 56 56 55 52 49 46 46 46 47 48 50 51 52 53 54 54 55 56 57 57 55 53 51
41 41 41 40 39 37 35 33 32 31 31 31 32 32 33 34 34 34 35 35 35 37 38 40 40 38 34 31 30 29 28 26 26 26 26 27 27 26 24 20 16 13 12 13 15 17 18 18 18 17 19 23 25 24 21 21 22 25 30 35 41 46 50 51 51 50 48 46 45 45 46 47 48 48 48 49 49 49 49 50 50 50 49 48 47 46
40 40 39 38 36 35 33 32 31 31 31 32 32 33 34 35 35 34 34 34 35 36 38 39 39 37 33 30 29 29 28 28 28 27 27 27 27 26 25 22 18 15 13 13 14 16 16 16 15 13 14 17 21 23 22 20 20 21 24 29 34 39 43 46 46 46 45 45 45 45 45 44 44 43 43 42 42 42 41 41 41 41 40 41 41 41
38 37 36 35 34 32 31 30 30 31 31 31 32 32 33 34 34 33 33 33 34 35 36 37 37 36 32 29 29 30 30 30 28 27 27 28 27 26 24 22 19 15 13 13 13 14 15 14 13 11 11 12 14 18 21 21 21 21 23 26 30 34 38 41 42 42 42 42 42 41 39 38 37 36 35 35 35 36 36 37 37 38 38 39 39 39
35 35 34 32 31 30 29 29 29 30 30 30 30 30 31 31 32 32 33 34 34 34 34 35 35 34 31 30 30 31 31 30 28 27 28 28 27 25 24 23 19 16 14 14 14 13 12 12 11 11 10 9 10 12 15 18 20 21 22 25 27 30 33 35 36 37 36 36 35 33 32 31 30 30 30 31 33 35 37 38 39 39 39 39 38 37
33 32 31 30 29 28 28 27 28 28 28 27 27 27 28 29 31 32 34 34 32 31 31 33 33 32 30 30 31 31 30 29 28 28 28 29 27 25 23 23 20 16 15 15 15 14 10 10 10 10 9 9 8 9 11 14 16 18 20 23 25 27 29 30 30 30 30 30 29 28 28 27 27 27 29 31 34 36 38 38 38 38 37 35 33 32
30 29 28 27 26 26 25 25 25 25 24 24 25 26 28 29 31 33 34 32 30 28 29 31 31 31 30 30 31 31 30 29 29 29 29 29 28 26 24 23 21 18 16 16 16 15 13 11 10 10 10 9 9 10 10 12 14 15 17 19 22 24 25 26 27 27 27 27 27 27 27 27 27 28 29 32 34 36 36 35 34 32 30 29 27 26
26 25 24 24 23 23 23 22 22 22 22 23 25 27 29 31 32 33 32 30 27 25 26 29 30 29 30 31 32 32 31 31 31 30 30 30 29 28 26 25 23 20 17 16 15 15 14 13 11 10 10 10 10 11 12 13 14 15 16 18 19 21 22 23 24 26 26 27 27 28 29 29 30 30 31 32 33 33 32 30 28 27 25 24 23 23
22 22 21 21 21 21 21 21 21 22 23 24 26 29 30 32 32 31 30 28 25 24 25 27 28 29 29 31 32 33 33 33 33 32 32 32 31 30 29 28 25 23 20 17 15 15 14 13 12 11 10 10 11 12 13 15 16 17 17 18 19 19 20 21 22 24 25 26 27 28 30 31 31 32 31 31 30 29 27 26 25 24 24 24 24 24
20 20 20 20 20 21 21 22 23 24 25 26 28 29 31 31 31 30 28 26 25 24 25 27 28 29 30 31 32 34 34 34 34 34 34 33 32 32 31 30 28 26 23 20 17 16 15 14 13 12 11 12 12 14 15 16 18 19 19 20 20 20 20 21 21 22 23 24 26 27 28 29 29 29 29 28 27 26 25 25 25 25 25 25 26 26
20 20 21 22 22 24 25 26 26 26 27 27 28 29 30 30 29 29 27 26 25 25 27 29 30 31 31 32 34 35 35 34 34 33 33 32 32 32 32 31 30 28 26 23 21 18 17 16 15 14 13 13 14 15 16 18 20 22 22 23 23 23 23 23 24 24 24 25 26 26 26 26 26 26 26 25 25 24 24 24 24 25 25 25 25 25
22 23 24 25 26 27 27 27 27 27 28 28 28 28 28 28 28 28 28 28 28 29 30 32 33 34 34 35 36 36 34 32 30 30 29 30 30 31 32 32 31 30 28 25 22 21 19 18 17 16 15 14 14 16 18 20 22 24 25 26 26 26 26 26 26 26 26 26 26 26 26 25 25 24 24 23 23 23 23 23 23 23 23 22 22 22
25 26 27 28 27 26 25 25 26 27 28 28 28 27 27 27 28 28 29 29 30 31 32 33 34 34 35 37 37 35 31 28 26 26 27 27 28 29 30 30 30 30 29 27 24 22 21 20 19 17 16 16 16 17 19 21 23 25 26 27 27 27 27 27 27 27 26 26 26 25 25 24 23 22 22 21 21 21 21 20 20 20 20 20 20 20
26 27 27 26 24 22 22 24 26 27 28 27 26 26 26 27 28 29 30 30 29 29 30 31 32 32 33 33 32 29 26 24 23 24 25 25 26 26 26 26 27 27 28 27 25 23 22 21 19 18 17 17 17 19 21 23 24 25 26 27 27 27 26 26 25 25 24 23 23 23 23 22 21 21 21 20 20 20 20 20 21 21 21 21 21 21
24 24 23 21 19 19 20 23 25 26 26 26 25 26 26 28 29 29 28 27 26 26 27 28 29 29 29 28 26 24 23 23 23 24 25 24 24 23 23 23 23 24 25 25 25 23 22 21 20 19 19 18 19 20 22 24 25 25 25 25 25 24 24 23 23 22 22 22 22 21 21 21 22 22 22 22 22 22 22 22 22 22 22 22 22 21
20 19 18 16 15 16 19 22 24 25 25 25 26 26 27 27 26 25 23 22 23 24 27 28 29 29 28 27 25 24 24 25 26 26 26 25 24 24 23 23 23 23 23 24 24 23 22 21 21 20 20 20 21 23 24 25 25 25 24 23 23 22 23 22 22 22 23 23 23 23 23 23 24 24 24 24 23 23 23 23 23 22 22 21 21 20
16 15 14 13 14 16 18 21 22 24 25 25 26 26 26 24 22 20 19 20 23 26 28 30 30 30 29 28 28 28 28 28 28 28 28 27 26 26 25 25 24 24 23 23 24 24 24 23 22 22 22 23 23 24 25 25 25 25 24 22 22 22 23 23 24 24 24 24 25 25 25 25 25 25 25 24 24 24 23 23 22 22 21 20 19 18
13 13 14 15 16 18 19 20 21 22 23 23 24 24 23 22 20 19 19 20 23 26 28 29 30 30 30 30 30 30 31 30 30 29 28 28 28 27 27 26 26 25 25 24 24 25 25 25 25 24 24 24 24 25 25 26 26 25 24 23 23 23 23 24 25 25 25 26 26 26 26 25 25 25 24 24 24 23 23 22 21 21 20 19 18 17
14 15 17 18 19 19 19 19 19 19 20 21 21 22 21 21 20 19 19 20 22 23 25 26 27 27 28 29 30 30 31 30 29 28 28 27 27 27 26 26 26 26 26 25 25 25 25 25 25 26 26 25 25 25 25 26 26 26 26 25 24 24 24 25 25 25 25 26 26 25 25 25 24 24 23 23 23 22 21 21 20 19 19 18 17 16
17 18 19 19 19 19 18 17 17 17 17 19 20 21 21 21 21 21 21 21 21 21 21 22 22 22 23 25 26 27 28 28 27 27 26 25 25 25 25 24 25 25 25 26 25 25 25 25 25 25 25 25 25 25 25 26 26 27 26 26 25 25 25 25 25 25 25 25 25 25 24 24 23 23 22 22 21 21 20 19 18 18 17 16 15 15
20 20 20 20 20 21 21 21 19 18 19 20 21 23 24 24 23 23 22 22 21 21 21 21 20 19 19 20 21 22 23 24 24 24 24 24 24 23 24 24 24 25 25 25 25 25 25 25 24 24 24 24 25 25 26 26 26 26 26 26 25 25 25 25 25 25 24 24 23 23 23 22 22 21 21 20 20 19 18 18 17 16 16 15 14 14
22 22 22 23 25 26 26 26 25 24 24 24 25 26 27 27 26 25 25 24 24 23 23 22 21 20 19 19 19 20 21 22 23 23 23 23 24 24 24 25 25 26 26 26 26 26 25 25 25 24 24 23 24 24 25 25 25 25 24 24 23 23 23 23 23 23 22 22 21 21 20 20 19 19 18 18 17 17 16 16 15 15 15 14 14 14
25 25 26 27 27 28 29 29 29 29 29 29 29 30 30 29 28 27 26 26 25 25 24 23 23 22 21 21 20 20 21 21 22 23 23 24 24 24 25 25 25 26 26 26 26 26 26 26 26 25 24 23 22 23 23 23 23 23 22 22 21 20 20 19 19 19 19 19 19 18 18 18 17 17 16 16 16 16 15 15 15 14 14 14 14 13
27 27 27 28 28 29 30 30 31 31 30 30 30 30 30 29 29 28 27 26 26 25 24 23 23 23 22 22 22 22 21 21 22 22 23 23 23 23 23 23 23 24 24 24 24 24 24 24 25 25 25 24 23 22 21 21 20 20 20 19 19 18 18 17 16 16 16 16 16 16 16 16 16 15 15 15 15 15 14 14 14 14 14 14 13 13
28 28 28 27 27 27 28 29 29 29 28 27 27 27 26 26 26 26 25 25 24 24 23 22 22 22 22 22 22 22 21 21 21 21 21 21 21 21 21 21 20 20 20 20 20 20 20 21 21 22 22 22 22 21 21 20 19 18 17 17 17 16 16 15 15 15 14 15 15 15 14 14 15 14 14 14 14 14 14 14 14 14 13 13 13 13
Wind_Direction
262 262 262 262 262 261 259 257 256 256 256 255 254 253 252 251 251 251 251 252 253 255 256 257 255 253 251 250 249 248 247 245 243 240 237 234 232 230 231 232 233 235 236 238 239 240 240 240 241 241 241 241 241 241 240 239 239 239 240 242 243 243 242 240 240 240 241 241 241 240 241 242 242 243 244 245 245 243 239 237 234 233 233 234 235 235
261 261 261 262 262 261 260 258 257 257 257 256 255 253 251 250 250 250 250 251 252 253 254 255 255 254 252 251 250 250 250 249 247 245 242 238 236 234 233 233 234 236 237 238 239 240 240 240 240 240 241 241 241 242 242 241 241 241 241 242 244 244 244 242 241 240 240 239 238 238 240 243 245 245 246 247 247 245 241 237 234 232 233 234 235 234
261 261 260 260 261 261 260 258 257 257 256 256 254 253 251 249 248 248 249 249 250 251 252 253 253 253 253 253 252 252 252 251 250 248 245 242 239 237 236 236 237 237 238 239 240 240 241 241 241 240 241 241 241 242 242 242 242 242 243 243 244 245 244 243 241 240 239 239 238 239 241 244 246 247 247 247 247 245 240 236 233 232 232 234 234 234
261 261 260 260 259 259 259 258 256 255 255 255 254 252 251 249 248 247 248 249 249 250 251 251 251 252 253 254 254 255 255 254 252 250 248 245 242 240 239 239 240 240 240 240 240 241 241 241 241 241 241 241 241 241 242 242 242 242 242 243 244 244 244 243 242 242 241 241 241 241 243 245 246 247 247 247 245 242 238 235 233 231 232 233 234 233
260 260 260 260 260 258 257 256 255 255 254 254 253 252 251 249 248 248 248 248 249 250 250 250 249 250 251 253 255 256 257 256 254 252 250 247 245 243 243 242 243 243 243 242 241 241 241 242 242 242 242 242 241 241 242 242 242 242 242 242 243 244 244 244 244 244 244 243 243 244 244 244 244 244 245 244 242 239 235 233 232 231 231 232 232 232
259 259 259 260 259 258 257 255 254 254 254 254 253 252 250 249 248 247 247 247 248 249 249 248 248 248 249 251 254 257 258 257 256 254 252 250 247 246 246 246 246 246 246 244 242 241 241 241 242 242 242 242 242 241 241 242 242 242 242 242 243 243 244 244 244 243 242 242 241 241 241 241 241 241 242 241 238 235 234 232 231 230 229 230 230 231
260 259 259 259 259 258 257 256 254 254 254 254 253 251 250 248 247 246 246 245 246 247 247 247 246 247 247 250 253 257 258 259 258 256 254 252 251 249 249 248 249 249 248 247 244 242 241 241 241 242 242 242 242 242 241 241 242 242 242 242 242 243 243 242 240 238 237 236 235 235 236 237 238 239 239 237 235 233 232 231 230 229 229 229 229 230
260 259 258 258 258 258 257 256 254 253 253 253 253 251 249 247 246 244 244 244 244 245 246 246 245 246 247 249 252 255 258 259 258 257 256 255 254 253 251 251 250 250 250 249 247 244 242 241 241 241 242 242 242 242 241 241 241 241 241 242 242 241 240 239 237 235 233 231 231 232 234 236 238 238 237 234 231 230 230 230 230 230 230 229 230 231
260 259 258 257 257 257 257 255 254 253 252 252 252 251 249 247 245 243 242 243 243 244 245 245 245 245 246 248 250 253 255 256 257 257 257 256 256 255 254 253 252 252 252 252 251 248 245 242 241 241 241 242 242 241 241 240 240 240 241 241 240 239 238 237 236 234 232 231 231 232 234 236 237 237 235 231 229 228 230 230 230 231 231 230 231 231
259 258 258 257 256 256 256 255 253 252 251 251 251 250 248 247 245 243 242 242 242 242 243 244 244 244 244 246 249 251 253 254 254 255 256 257 257 256 255 254 253 253 253 254 254 252 249 245 243 241 241 241 241 241 240 239 239 239 240 240 239 238 236 236 235 234 232 232 232 232 233 235 236 236 233 229 228 229 230 230 230 231 232 232 232 233
258 258 257 256 255 255 255 255 253 252 250 250 249 248 247 245 244 244 243 243 242 242 242 242 242 243 243 245 247 250 251 252 253 254 256 258 258 258 257 256 255 254 254 255 256 256 255 252 247 244 242 241 240 240 239 238 238 238 239 240 238 237 235 235 234 233 232 232 231 230 231 233 235 234 230 229 230 231 230 229 230 231 232 232 234 235
258 257 256 256 255 254 253 253 253 252 250 249 248 246 245 243 243 245 246 245 243 242 241 240 240 241 242 244 247 249 250 252 253 254 256 258 259 259 259 257 256 256 255 255 256 259 261 259 254 249 245 242 241 239 238 237 237 237 239 239 237 236 235 235 234 233 231 230 229 228 229 232 233 231 228 229 231 231 230 229 230 231 232 233 235 237
257 257 256 255 254 253 252 252 252 251 249 247 245 244 242 242 243 246 248 247 245 243 241 240 238 238 240 243 246 249 251 252 253 254 256 258 260 261 260 259 258 257 256 255 256 259 263 264 261 256 251 246 242 239 238 236 236 236 237 237 236 235 236 236 236 235 233 231 229 228 229 232 232 230 227 228 229 230 229 229 230 231 232 234 236 238
257 257 256 254 253 251 251 250 250 248 246 245 243 242 242 242 244 246 247 247 246 244 242 240 238 237 238 241 244 247 250 252 253 254 256 259 261 262 261 260 259 258 256 255 255 258 263 267 266 261 256 250 245 241 238 236 235 235 236 236 235 235 236 237 238 238 237 235 233 232 233 234 234 231 228 226 226 227 229 231 232 233 233 234 237 239
257 257 256 254 251 250 249 248 248 246 245 243 242 242 242 243 244 245 246 247 246 244 243 241 239 237 237 239 242 246 249 251 253 254 257 260 262 262 262 261 260 258 257 255 254 256 262 267 268 265 260 254 248 243 239 236 234 234 234 235 235 236 236 238 239 239 239 239 238 237 238 238 238 235 232 228 226 226 229 234 237 238 237 237 238 240
257 257 255 253 251 248 247 246 246 245 243 241 240 241 243 244 245 245 246 247 246 245 243 242 240 239 238 239 241 244 248 250 251 254 258 261 262 262 261 260 260 259 257 255 253 254 260 267 270 269 264 257 249 244 240 236 234 233 233 234 236 237 238 239 239 239 240 240 239 239 240 240 240 238 236 233 231 231 233 237 240 242 243 242 242 242
257 256 255 253 250 247 245 244 244 243 241 240 239 241 243 245 246 246 247 246 246 244 242 241 241 241 240 240 241 244 246 248 250 253 258 260 261 261 261 260 259 258 256 253 251 252 258 266 271 271 268 260 251 244 240 237 234 233 233 234 236 239 240 240 240 240 239 239 239 239 239 240 240 239 238 237 237 237 238 240 242 243 245 244 244 243
256 255 254 252 249 246 243 242 242 241 240 239 240 242 244 245 246 246 246 245 245 244 243 241 241 241 241 242 243 244 244 245 248 253 257 259 260 261 261 259 258 256 254 252 250 250 256 263 269 272 272 263 253 244 240 237 235 234 234 235 238 240 241 241 241 240 239 239 238 238 238 238 238 238 238 237 238 238 239 241 242 243 244 243 242 241
255 254 253 251 248 245 242 241 239 239 238 239 241 244 245 245 245 244 244 243 243 244 244 243 242 240 240 243 244 244 243 242 245 250 254 256 259 261 262 260 257 255 252 250 248 249 254 261 267 272 273 267 255 245 239 237 235 235 236 237 239 240 241 240 239 239 239 238 238 237 237 237 237 237 237 237 237 238 238 239 240 241 242 242 240 238
255 253 250 248 246 244 242 239 237 237 238 240 242 245 246 244 243 242 241 241 241 242 243 243 242 240 240 243 245 243 239 238 240 244 248 251 256 261 263 261 257 254 250 248 246 248 254 261 267 272 275 269 257 245 239 236 235 236 237 239 240 240 238 236 235 236 236 236 237 238 238 238 237 237 236 236 236 237 237 238 238 239 241 242 241 239
256 253 249 246 245 243 241 238 236 236 238 241 243 245 244 243 242 240 238 238 239 241 242 242 241 240 241 244 244 240 234 232 235 238 238 241 250 258 262 260 256 252 249 246 245 248 255 262 268 274 276 270 258 246 239 235 234 235 237 238 239 238 235 233 232 233 234 235 236 238 239 239 238 237 236 236 236 236 237 237 238 239 240 242 242 241
252 251 247 245 243 242 240 237 236 236 238 242 244 244 243 242 241 238 235 234 237 240 241 241 239 239 241 242 240 235 229 228 230 230 224 227 239 250 256 257 254 250 246 244 245 248 255 262 270 276 276 269 258 247 240 235 233 233 234 236 236 235 233 231 231 232 233 235 237 238 239 239 238 237 236 235 235 235 236 237 238 239 241 242 242 242
249 248 246 244 243 241 240 238 237 237 240 243 244 243 242 241 239 235 232 232 235 238 239 238 238 239 241 241 236 230 225 225 226 221 212 221 234 245 251 253 250 246 244 243 245 249 255 264 273 277 274 264 253 244 238 235 233 232 233 234 234 233 232 232 232 233 235 237 238 239 239 238 237 236 235 235 235 235 236 238 239 240 242 243 243 243
248 247 246 244 243 241 240 240 240 241 243 244 243 242 241 239 236 234 232 232 235 237 237 237 237 239 241 239 233 226 222 222 219 212 209 220 232 241 246 247 244 242 242 243 246 250 257 267 275 277 269 255 244 237 233 231 230 230 231 232 233 233 233 233 234 235 237 238 239 239 239 238 237 236 236 236 236 237 238 239 240 241 243 243 243 243
248 248 247 245 244 243 243 243 244 245 244 242 240 238 237 235 233 232 231 232 234 236 236 236 237 239 240 238 230 223 219 218 213 208 210 221 231 238 242 241 238 237 238 243 246 251 259 270 277 275 262 245 233 227 225 224 225 227 228 230 232 233 234 234 235 235 236 237 238 238 238 237 237 237 237 237 238 239 240 241 242 243 244 243 242 242
247 247 247 246 245 244 244 245 245 245 242 239 236 234 233 232 230 229 229 231 233 235 236 236 237 239 240 236 228 220 216 214 209 206 213 224 231 236 238 236 233 231 233 240 246 253 262 274 279 273 255 237 226 219 216 217 220 222 225 227 229 230 231 232 232 233 233 233 234 235 236 237 237 238 238 239 239 240 241 243 244 244 244 242 241 239
247 247 247 246 246 245 244 244 244 242 239 235 233 231 230 230 228 227 228 231 233 235 237 237 238 239 240 236 226 217 214 211 207 208 215 226 233 236 235 233 229 225 225 232 242 251 262 275 280 271 251 235 224 216 210 211 214 218 221 223 224 225 226 226 226 226 227 228 230 231 233 235 236 237 237 238 239 240 241 243 243 243 242 240 238 236
247 247 246 246 245 245 244 243 241 239 235 232 230 229 228 228 227 227 228 231 234 237 239 238 238 239 239 234 223 215 212 210 209 211 217 228 234 235 233 232 227 220 217 222 232 243 256 271 277 269 249 235 226 219 214 211 212 214 216 217 218 218 218 218 218 219 221 224 227 229 231 233 234 235 236 237 238 239 239 239 239 238 236 234 232 231
247 247 246 245 245 244 243 241 239 236 233 230 228 227 227 227 227 228 230 234 238 241 241 239 238 238 237 231 221 214 212 211 211 212 218 228 233 232 229 229 226 218 211 212 222 235 247 261 269 267 250 236 227 223 220 218 217 216 215 214 214 213 213 213 214 217 220 223 226 229 231 232 233 233 233 233 233 232 232 230 229 227 226 225 225 225
247 246 246 245 244 243 241 239 237 234 231 229 227 226 227 228 228 230 233 237 241 243 242 239 237 236 234 227 219 213 212 211 211 212 217 227 230 227 224 226 223 216 205 204 212 224 236 248 259 264 255 240 227 222 221 221 221 220 218 216 214 213 213 214 217 219 222 225 227 229 229 229 228 226 225 223 222 221 220 219 218 218 218 219 221 223
246 246 245 244 243 241 239 237 235 232 230 227 226 227 228 230 231 233 236 239 242 243 240 235 233 232 230 224 217 212 211 212 211 211 215 225 227 223 219 222 222 214 200 200 204 210 220 236 249 257 258 247 231 221 218 218 218 219 219 217 215 214 214 216 217 219 220 221 221 221 219 217 215 214 214 214 215 216 217 217 217 218 219 221 224 227
244 243 243 241 239 237 235 234 232 229 227 225 225 227 230 233 234 235 237 239 242 241 235 229 228 228 227 221 216 212 211 212 212 213 217 224 225 220 217 221 222 215 201 199 199 200 204 221 236 247 253 250 240 228 220 215 214 214 215 214 213 211 211 211 211 211 211 210 209 208 207 207 207 208 211 215 218 220 221 222 223 225 226 228 230 233
240 239 237 235 233 232 230 229 227 225 223 224 226 230 233 234 234 234 236 239 241 238 229 225 225 226 224 218 214 212 211 213 215 217 221 226 226 223 220 221 222 218 207 200 196 196 199 209 222 233 242 246 244 236 226 218 213 212 213 214 213 212 210 209 209 208 208 207 207 206 207 208 210 213 216 220 223 225 227 228 228 229 230 232 233 234
233 231 230 228 227 226 225 224 222 221 222 225 229 232 233 233 233 234 237 241 242 237 227 223 225 228 224 218 213 210 211 214 218 222 225 229 230 228 225 225 224 221 215 205 196 191 193 201 211 222 231 238 239 236 229 220 214 211 212 216 219 219 218 217 217 216 215 215 214 214 214 215 216 219 221 224 225 227 227 227 227 226 227 227 228 230
223 221 221 221 220 219 219 219 221 223 226 229 231 232 232 231 232 235 240 244 245 239 229 226 229 231 227 219 213 211 212 216 221 226 230 233 233 231 230 229 227 225 221 213 201 192 191 197 206 216 224 230 232 231 226 218 210 206 207 211 215 219 220 219 220 220 220 219 219 219 219 219 220 220 222 223 223 223 223 222 222 222 222 223 224 226
211 211 212 213 214 216 218 221 225 227 230 231 232 232 231 232 234 237 242 245 245 240 234 232 233 234 230 221 214 212 215 220 225 230 233 234 233 232 231 230 228 226 225 221 212 204 202 205 209 215 222 226 227 224 219 213 206 200 198 199 201 203 204 204 205 208 211 213 215 216 216 217 217 218 218 218 218 218 219 219 220 222 223 224 225 226
204 206 209 211 214 219 223 226 228 229 230 232 233 233 233 234 237 240 242 244 243 240 236 235 235 234 228 219 213 212 215 221 227 231 232 232 230 228 228 227 227 226 225 225 221 217 214 214 215 216 220 224 224 220 214 209 203 196 190 187 186 186 186 187 189 192 196 201 204 207 208 210 211 212 213 214 216 217 219 220 221 222 223 223 224 224
208 211 214 217 220 224 226 227 228 228 229 230 231 232 233 235 238 240 241 241 240 238 236 234 232 229 222 215 211 212 215 220 224 226 226 225 224 223 224 224 224 225 224 224 222 220 218 217 217 218 219 219 218 216 211 206 200 193 187 183 181 180 179 180 182 185 188 193 196 199 201 203 205 207 209 211 213 215 216 217 216 216 215 215 214 212
220 222 224 225 226 226 226 225 224 225 226 227 227 227 229 232 235 237 238 238 237 235 232 229 225 219 213 209 208 210 211 213 214 216 216 217 218 218 218 219 220 221 222 222 219 216 215 213 213 214 214 213 210 207 206 203 197 191 186 183 182 181 181 181 181 183 185 189 192 194 196 198 200 202 203 203 204 204 203 202 200 198 196 194 192 189
233 232 231 230 228 225 222 219 219 220 221 221 220 220 222 226 230 232 233 233 231 228 224 218 210 204 199 198 199 200 199 199 200 203 205 207 207 207 207 208 211 214 216 217 215 211 207 205 204 204 205 206 204 200 198 196 192 189 185 182 180 181 182 182 182 183 184 186 188 190 191 191 191 191 189 188 186 184 183 181 179 177 176 174 172 171
238 234 231 228 224 219 214 211 211 213 213 211 209 209 213 218 221 224 224 223 220 214 206 197 188 181 178 179 180 180 180 183 187 190 191 191 191 190 190 192 196 200 205 207 207 204 199 195 193 192 194 195 195 194 192 190 187 185 183 182 181 182 183 182 181 180 180 180 180 180 179 178 176 174 173 171 170 169 168 167 166 166 166 166 166 166
232 228 226 222 217 210 204 201 201 201 200 198 198 200 204 208 209 209 208 205 199 191 182 173 165 160 158 159 161 164 168 173 176 177 177 177 177 176 177 178 181 186 190 193 193 191 188 185 183 183 184 186 187 187 187 186 185 184 183 184 184 184 183 180 178 175 172 170 170 168 167 166 164 163 163 162 162 161 162 162 163 164 165 166 167 169
222 219 215 209 203 197 192 189 188 188 188 188 191 193 195 195 193 191 189 186 181 174 166 159 153 151 153 155 158 162 165 168 169 170 170 170 171 171 171 171 173 176 179 180 180 180 179 177 176 176 178 181 183 184 184 183 183 182 182 182 183 182 179 175 172 169 166 164 162 161 161 160 160 160 160 160 160 161 162 163 165 166 168 170 172 174
206 202 197 194 189 184 180 178 178 179 181 184 186 187 186 183 178 175 173 172 169 164 157 152 150 151 155 158 161 164 166 167 168 168 169 169 169 169 169 169 170 172 173 173 174 174 174 173 173 174 176 179 181 182 183 182 181 179 178 177 177 176 174 171 167 164 162 161 160 159 159 159 159 160 161 161 162 163 164 166 168 170 172 174 177 179
184 184 184 183 179 174 169 167 168 171 176 179 181 181 178 174 170 167 165 164 161 157 151 148 149 153 157 161 164 166 168 168 168 168 169 169 168 168 167 168 168 169 170 171 171 172 172 172 173 174 176 178 179 180 180 179 177 175 172 170 170 170 169 167 164 162 160 160 159 159 159 160 160 162 162 163 164 165 167 168 170 172 175 177 180 182
169 171 172 169 163 156 149 145 146 152 160 166 169 170 168 166 163 161 159 157 155 150 146 145 148 153 159 163 166 168 168 168 168 167 167 167 166 166 166 166 167 167 167 168 168 168 169 169 171 172 173 174 174 175 174 173 171 168 166 164 164 164 164 162 161 159 159 159 159 159 160 161 162 163 163 164 166 168 170 172 173 175 178 181 183 186
153 153 150 144 137 130 123 120 122 128 137 145 150 152 153 153 152 151 149 146 142 138 136 137 142 148 154 160 164 166 166 165 163 163 162 162 161 162 163 163 163 163 162 161 161 161 161 162 163 163 164 165 165 165 165 164 163 161 159 158 158 159 159 159 158 158 158 158 158 159 160 161 162 163 165 167 169 170 172 174 176 178 181 183 186 188
133 130 126 122 119 116 114 112 113 115 120 126 131 134 136 137 137 136 134 131 127 125 125 127 130 135 140 146 151 155 156 155 154 153 153 154 154 155 156 156 156 154 153 152 151 151 151 152 152 152 152 154 155 155 155 155 155 154 154 154 155 156 157 157 157 157 158 158 159 160 160 161 162 164 166 169 171 173 174 175 177 180 182 184 186 188
119 116 114 113 113 113 113 113 113 113 114 116 119 121 123 124 124 124 123 121 119 118 118 119 121 123 126 130 134 138 141 142 142 143 144 145 146 147 148 147 146 145 144 143 143 144 144 145 145 145 146 148 150 151 150 150 151 151 152 153 154 156 157 157 156 157 158 158 159 160 162 163 164 166 168 171 172 173 174 175 177 179 181 184 186 188
114 112 110 111 112 113 115 115 115 115 114 114 114 115 116 117 118 118 118 117 117 116 116 117 118 118 120 121 123 125 127 130 132 133 134 136 137 138 138 138 137 137 137 137 138 140 141 143 143 144 145 147 149 150 150 150 151 152 153 154 156 157 158 158 158 158 159 159 160 161 162 163 165 167 169 171 172 173 174 176 177 179 181 184 187 190
111 111 110 111 111 113 114 115 116 116 115 114 114 114 114 114 115 116 116 117 117 117 117 118 118 119 119 119 120 120 121 123 124 125 127 127 128 128 128 128 128 129 131 133 136 138 141 143 145 146 147 148 150 151 152 152 152 154 155 156 158 159 160 161 160 160 160 161 162 162 163 163 165 167 169 171 172 174 176 178 179 180 184 188 191 194
Height
2899 2900 2901 2903 2905 2907 2908 2911 2913 2915 2916 2918 2920 2922 2923 2924 2924 2925 2926 2926 2926 2926 2927 2928 2930 2932 2934 2936 2938 2939 2941 2942 2943 2944 2944 2945 2946 2947 2949 2950 2951 2953 2954 2956 2958 2960 2962 2964 2967 2969 2972 2974 2976 2978 2980 2983 2985 2987 2989 2991 2992 2994 2996 2998 3000 3002 3004 3006 3008 3010 3013 3014 3016 3017 3018 3020 3023 3026 3029 3030 3031 3031 3033 3035 3038 3039
2894 2895 2897 2899 2900 2902 2903 2905 2909 2911 2912 2913 2915 2917 2919 2920 2921 2922 2922 2923 2923 2923 2924 2925 2926 2928 2930 2932 2934 2935 2936 2938 2939 2940 2940 2941 2942 2943 2944 2945 2947 2948 2950 2951 2953 2955 2957 2959 2962 2964 2967 2970 2972 2974 2976 2979 2981 2983 2985 2987 2989 2990 2992 2994 2996 2998 3000 3002 3004 3006 3008 3010 3012 3013 3014 3016 3018 3021 3024 3025 3026 3028 3029 3031 3034 3036
2890 2891 2892 2894 2896 2897 2898 2901 2904 2906 2907 2908 2910 2912 2914 2915 2916 2917 2918 2918 2919 2920 2921 2922 2923 2924 2926 2928 2929 2930 2931 2933 2935 2936 2936 2937 2938 2939 2939 2941 2943 2944 2945 2947 2948 2950 2952 2954 2956 2959 2962 2965 2968 2970 2972 2974 2976 2979 2980 2982 2984 2986 2988 2990 2992 2994 2996 2998 2999 3002 3004 3006 3008 3009 3010 3012 3014 3016 3019 3021 3023 3024 3025 3028 3030 3033
2887 2887 2888 2889 2891 2893 2894 2896 2899 2900 2902 2904 2905 2907 2909 2910 2911 2912 2914 2915 2916 2918 2919 2919 2920 2921 2922 2924 2925 2926 2927 2929 2930 2932 2933 2933 2934 2934 2935 2937 2938 2940 2941 2942 2944 2945 2947 2949 2952 2954 2957 2960 2963 2965 2968 2970 2972 2974 2976 2978 2980 2982 2984 2985 2987 2989 2991 2993 2995 2997 2999 3002 3003 3004 3006 3007 3009 3012 3015 3017 3019 3020 3022 3024 3026 3028
2883 2883 2883 2884 2886 2888 2889 2892 2894 2896 2898 2899 2901 2903 2905 2906 2907 2909 2910 2912 2914 2915 2915 2916 2917 2918 2919 2920 2922 2923 2923 2924 2926 2927 2929 2929 2930 2931 2932 2933 2934 2936 2937 2938 2939 2941 2942 2944 2947 2949 2952 2954 2958 2961 2963 2966 2968 2970 2972 2974 2976 2978 2979 2981 2983 2984 2986 2988 2989 2992 2994 2997 2999 3000 3001 3003 3005 3008 3010 3012 3014 3016 3017 3019 3021 3023
2878 2879 2879 2881 2882 2883 2885 2887 2890 2892 2893 2895 2897 2899 2900 2902 2904 2905 2907 2909 2910 2911 2911 2912 2913 2914 2915 2917 2918 2919 2919 2920 2921 2923 2924 2925 2926 2927 2928 2929 2930 2932 2933 2934 2935 2936 2938 2939 2942 2944 2946 2949 2953 2956 2959 2961 2964 2965 2967 2969 2971 2973 2975 2977 2978 2979 2981 2983 2985 2987 2990 2992 2994 2995 2997 2999 3002 3005 3007 3008 3009 3011 3013 3014 3016 3019
2873 2875 2876 2877 2878 2879 2880 2882 2885 2888 2890 2891 2893 2894 2896 2898 2900 2902 2903 2904 2905 2906 2907 2908 2909 2910 2912 2913 2914 2915 2916 2916 2918 2919 2920 2921 2922 2923 2924 2925 2927 2929 2930 2930 2931 2932 2934 2935 2937 2939 2941 2944 2947 2951 2954 2957 2959 2961 2963 2965 2967 2969 2971 2973 2974 2975 2977 2979 2980 2983 2986 2988 2990 2991 2993 2995 2998 3001 3002 3003 3005 3007 3008 3009 3012 3014
2869 2871 2873 2874 2874 2874 2876 2878 2881 2884 2887 2888 2889 2890 2892 2894 2896 2898 2899 2900 2901 2902 2903 2904 2906 2907 2909 2909 2910 2912 2912 2913 2914 2916 2917 2918 2919 2919 2921 2922 2924 2925 2926 2927 2928 2928 2929 2931 2933 2934 2937 2939 2943 2946 2950 2953 2955 2957 2959 2961 2963 2965 2967 2969 2970 2971 2973 2974 2977 2979 2982 2984 2986 2988 2989 2992 2995 2997 2997 2998 3001 3003 3004 3005 3008 3011
2866 2867 2868 2869 2870 2871 2872 2874 2877 2881 2883 2884 2885 2886 2888 2889 2891 2893 2895 2896 2898 2899 2900 2901 2903 2904 2905 2906 2907 2909 2909 2911 2912 2913 2914 2914 2915 2916 2917 2919 2920 2922 2923 2924 2924 2925 2926 2927 2929 2930 2932 2935 2938 2941 2945 2949 2951 2953 2955 2958 2959 2962 2964 2965 2967 2968 2969 2971 2973 2975 2978 2980 2982 2984 2986 2988 2990 2992 2992 2994 2997 2999 3000 3002 3004 3007
2862 2863 2864 2865 2867 2868 2869 2870 2873 2877 2880 2880 2881 2882 2884 2885 2888 2889 2891 2892 2894 2895 2897 2898 2899 2900 2902 2904 2905 2906 2907 2908 2909 2910 2910 2910 2911 2912 2913 2915 2916 2918 2919 2920 2921 2922 2922 2923 2924 2926 2928 2930 2933 2937 2941 2944 2947 2949 2952 2954 2956 2958 2960 2961 2963 2964 2966 2968 2970 2972 2974 2977 2979 2980 2982 2984 2986 2986 2987 2990 2993 2995 2997 2999 3001 3003
2859 2859 2861 2861 2863 2864 2866 2867 2869 2873 2876 2877 2877 2878 2880 2882 2884 2886 2887 2888 2890 2892 2894 2895 2896 2897 2899 2901 2902 2903 2904 2905 2906 2906 2906 2906 2907 2908 2909 2910 2912 2913 2915 2916 2918 2919 2919 2920 2920 2922 2924 2925 2929 2932 2936 2940 2943 2945 2948 2950 2952 2954 2955 2957 2959 2961 2963 2965 2967 2969 2971 2973 2975 2977 2978 2980 2981 2982 2984 2987 2989 2992 2994 2996 2998 2999
2855 2856 2858 2858 2859 2860 2862 2864 2866 2869 2872 2873 2874 2875 2877 2879 2881 2882 2883 2884 2886 2889 2891 2892 2893 2894 2896 2897 2899 2899 2900 2901 2902 2902 2902 2902 2903 2903 2904 2905 2907 2908 2910 2913 2914 2916 2916 2917 2917 2918 2919 2921 2924 2928 2932 2935 2938 2941 2944 2945 2948 2949 2951 2954 2955 2957 2959 2961 2963 2965 2968 2970 2972 2973 2975 2976 2978 2979 2981 2984 2986 2988 2990 2992 2994 2995
2852 2853 2854 2855 2855 2857 2859 2861 2863 2866 2868 2869 2870 2871 2873 2876 2878 2879 2879 2880 2882 2885 2887 2888 2889 2891 2893 2894 2895 2896 2897 2898 2898 2898 2899 2899 2899 2899 2900 2901 2902 2904 2906 2908 2911 2913 2914 2914 2914 2914 2915 2917 2919 2923 2927 2930 2934 2937 2939 2941 2943 2945 2947 2949 2952 2954 2956 2957 2959 2961 2964 2966 2968 2970 2972 2974 2975 2977 2979 2981 2982 2984 2986 2988 2989 2991
2849 2850 2851 2851 2852 2854 2855 2858 2860 2862 2863 2865 2866 2868 2870 2873 2875 2876 2876 2877 2879 2881 2883 2885 2886 2888 2890 2891 2892 2893 2894 2894 2895 2895 2895 2895 2895 2895 2896 2896 2898 2899 2901 2904 2907 2909 2911 2911 2911 2911 2912 2913 2916 2919 2922 2925 2929 2932 2934 2936 2938 2940 2943 2945 2947 2950 2952 2954 2956 2957 2959 2962 2964 2967 2969 2970 2972 2974 2976 2977 2979 2980 2982 2984 2985 2987
2845 2847 2847 2848 2849 2850 2852 2854 2856 2858 2859 2861 2864 2866 2868 2869 2871 2872 2873 2874 2875 2878 2880 2882 2883 2885 2887 2889 2889 2890 2891 2891 2892 2892 2892 2892 2891 2891 2892 2893 2894 2895 2897 2900 2903 2906 2908 2909 2908 2908 2909 2910 2912 2914 2917 2921 2924 2927 2929 2932 2934 2936 2938 2940 2943 2945 2948 2950 2952 2954 2956 2958 2960 2963 2966 2967 2969 2971 2974 2975 2976 2977 2979 2980 2981 2983
2842 2844 2844 2844 2845 2847 2849 2852 2853 2854 2856 2859 2861 2863 2864 2866 2867 2868 2869 2870 2873 2875 2877 2879 2880 2881 2883 2885 2886 2888 2888 2889 2889 2889 2889 2889 2888 2888 2889 2889 2890 2891 2893 2896 2899 2902 2905 2906 2905 2905 2905 2906 2908 2910 2913 2916 2919 2922 2925 2927 2930 2932 2934 2937 2939 2941 2944 2946 2948 2950 2953 2954 2957 2959 2962 2964 2966 2969 2970 2972 2974 2975 2976 2977 2978 2979
2839 2840 2840 2841 2842 2844 2846 2848 2850 2851 2853 2855 2858 2859 2861 2862 2863 2865 2866 2868 2870 2872 2874 2875 2876 2878 2879 2881 2883 2884 2885 2885 2885 2885 2886 2886 2885 2884 2885 2885 2886 2887 2889 2891 2895 2899 2903 2903 2902 2901 2902 2902 2904 2905 2908 2911 2914 2917 2920 2923 2925 2928 2931 2933 2935 2937 2939 2942 2944 2946 2949 2951 2953 2955 2958 2961 2963 2965 2967 2968 2970 2972 2973 2974 2976 2977
2835 2836 2837 2838 2839 2840 2843 2845 2846 2848 2849 2852 2854 2856 2857 2859 2860 2862 2864 2865 2867 2869 2870 2872 2873 2875 2876 2878 2879 2881 2882 2882 2882 2882 2883 2883 2882 2881 2881 2882 2882 2883 2885 2888 2892 2897 2900 2900 2899 2899 2899 2899 2899 2901 2903 2906 2909 2913 2915 2918 2921 2924 2927 2929 2932 2934 2936 2938 2940 2943 2945 2947 2949 2951 2954 2957 2959 2961 2963 2964 2966 2967 2969 2971 2973 2974
2832 2833 2834 2834 2836 2837 2839 2841 2843 2844 2846 2848 2850 2852 2854 2856 2858 2859 2861 2862 2864 2866 2868 2869 2870 2872 2874 2875 2876 2877 2879 2879 2879 2879 2880 2879 2879 2878 2878 2879 2879 2880 2882 2885 2889 2894 2897 2897 2896 2895 2895 2895 2895 2897 2899 2901 2904 2908 2911 2914 2917 2920 2924 2926 2929 2931 2933 2935 2937 2939 2941 2944 2945 2948 2950 2952 2955 2957 2959 2961 2962 2964 2965 2967 2969 2970
2828 2829 2830 2831 2833 2834 2835 2837 2839 2841 2843 2845 2847 2849 2851 2853 2854 2856 2857 2859 2862 2864 2865 2866 2868 2869 2870 2872 2873 2874 2875 2876 2876 2876 2876 2876 2876 2876 2876 2876 2877 2878 2880 2883 2887 2891 2893 2894 2893 2892 2891 2891 2891 2892 2894 2897 2900 2904 2907 2909 2913 2916 2919 2922 2925 2928 2930 2932 2934 2936 2938 2940 2942 2944 2946 2948 2950 2953 2955 2957 2958 2960 2962 2963 2964 2966
2825 2825 2826 2829 2830 2831 2831 2833 2835 2837 2840 2843 2845 2847 2848 2849 2851 2853 2855 2857 2860 2862 2863 2864 2865 2866 2867 2869 2870 2871 2872 2873 2874 2874 2874 2874 2875 2875 2875 2875 2875 2876 2878 2880 2884 2888 2890 2890 2889 2889 2887 2886 2886 2887 2889 2892 2895 2899 2902 2905 2908 2911 2915 2918 2921 2924 2927 2929 2931 2933 2934 2936 2938 2940 2942 2944 2946 2948 2950 2952 2954 2956 2958 2960 2961 2962
2823 2823 2824 2826 2827 2828 2828 2830 2832 2835 2838 2840 2842 2843 2844 2847 2849 2850 2852 2855 2858 2859 2860 2861 2862 2863 2864 2866 2867 2868 2869 2870 2871 2871 2871 2872 2873 2874 2873 2874 2874 2874 2876 2878 2881 2884 2886 2887 2886 2884 2883 2881 2881 2883 2885 2887 2890 2893 2897 2900 2903 2907 2910 2913 2916 2919 2922 2924 2926 2928 2930 2932 2934 2936 2938 2940 2942 2944 2946 2948 2950 2952 2954 2956 2957 2959
2819 2819 2821 2823 2824 2824 2825 2827 2830 2833 2836 2838 2839 2840 2842 2844 2846 2848 2850 2853 2855 2856 2857 2857 2859 2860 2862 2863 2864 2865 2867 2868 2869 2869 2869 2870 2871 2872 2872 2872 2873 2873 2874 2875 2878 2881 2883 2884 2883 2881 2879 2877 2877 2879 2881 2883 2886 2889 2892 2895 2899 2902 2905 2908 2911 2914 2917 2919 2921 2923 2925 2928 2930 2932 2934 2936 2938 2940 2942 2944 2945 2948 2950 2952 2953 2954
2815 2816 2817 2819 2820 2821 2823 2825 2828 2831 2834 2835 2836 2838 2840 2842 2843 2845 2847 2849 2851 2852 2853 2855 2856 2858 2859 2860 2862 2863 2864 2865 2866 2866 2867 2867 2869 2870 2871 2871 2871 2871 2872 2873 2875 2878 2880 2880 2879 2878 2876 2875 2874 2876 2878 2880 2883 2886 2889 2892 2895 2898 2901 2904 2907 2910 2913 2915 2917 2919 2921 2924 2925 2928 2930 2932 2934 2936 2938 2939 2942 2944 2946 2948 2950 2951
2812 2813 2814 2815 2817 2819 2820 2823 2826 2829 2831 2833 2834 2835 2837 2839 2840 2842 2844 2846 2848 2849 2851 2853 2854 2855 2856 2858 2859 2860 2861 2863 2864 2864 2864 2865 2867 2869 2869 2869 2869 2869 2869 2871 2873 2876 2877 2877 2876 2875 2874 2874 2873 2874 2875 2878 2880 2883 2886 2889 2892 2895 2898 2901 2904 2907 2909 2912 2914 2916 2918 2920 2922 2924 2926 2928 2930 2932 2934 2935 2938 2940 2943 2944 2946 2947
2809 2810 2811 2813 2814 2817 2819 2821 2824 2826 2828 2830 2831 2832 2834 2835 2837 2839 2842 2843 2845 2847 2849 2850 2850 2851 2853 2855 2856 2857 2859 2860 2861 2861 2862 2863 2865 2867 2868 2868 2868 2868 2868 2869 2871 2873 2874 2874 2873 2873 2873 2872 2872 2872 2874 2876 2878 2881 2884 2887 2889 2893 2896 2899 2901 2904 2906 2909 2911 2914 2915 2917 2919 2921 2923 2924 2926 2928 2930 2932 2934 2936 2939 2941 2943 2944
2806 2807 2809 2810 2812 2814 2816 2819 2821 2824 2825 2827 2828 2830 2832 2833 2835 2837 2839 2840 2842 2844 2846 2847 2848 2849 2851 2852 2854 2855 2856 2858 2859 2859 2860 2861 2863 2865 2866 2866 2866 2867 2867 2868 2869 2870 2871 2871 2871 2871 2871 2871 2871 2871 2872 2874 2876 2879 2882 2884 2887 2890 2893 2896 2899 2902 2904 2907 2909 2911 2913 2915 2916 2917 2919 2920 2922 2924 2926 2928 2930 2932 2934 2937 2938 2940
2804 2805 2806 2808 2810 2812 2814 2817 2819 2821 2822 2824 2826 2828 2830 2831 2833 2834 2835 2837 2840 2842 2843 2844 2845 2847 2849 2850 2851 2853 2854 2855 2856 2857 2859 2860 2862 2863 2865 2865 2865 2865 2866 2866 2867 2868 2869 2870 2870 2870 2870 2870 2870 2870 2871 2872 2874 2877 2879 2882 2885 2887 2890 2893 2895 2898 2901 2903 2905 2907 2909 2910 2912 2913 2914 2916 2918 2919 2922 2924 2926 2928 2930 2932 2934 2935
2801 2802 2804 2806 2808 2810 2812 2814 2816 2818 2819 2821 2824 2826 2828 2829 2829 2831 2833 2836 2838 2839 2840 2841 2842 2844 2846 2847 2849 2851 2852 2853 2854 2855 2857 2859 2860 2861 2863 2864 2864 2864 2864 2865 2865 2866 2867 2868 2869 2869 2869 2869 2869 2869 2870 2871 2872 2874 2877 2879 2882 2884 2887 2889 2892 2894 2897 2899 2901 2903 2904 2906 2908 2909 2910 2912 2914 2916 2918 2920 2922 2924 2926 2927 2929 2930
2799 2800 2802 2804 2806 2808 2810 2812 2813 2815 2817 2819 2821 2823 2825 2826 2827 2829 2832 2834 2835 2836 2837 2838 2840 2842 2843 2845 2847 2848 2849 2850 2852 2854 2855 2856 2858 2859 2861 2863 2863 2863 2863 2863 2864 2864 2865 2866 2867 2868 2868 2868 2868 2868 2869 2870 2871 2873 2875 2877 2879 2882 2884 2886 2889 2891 2893 2896 2898 2899 2901 2903 2904 2905 2907 2909 2910 2912 2914 2915 2917 2919 2920 2922 2924 2925
2797 2799 2800 2802 2804 2806 2808 2809 2811 2813 2815 2817 2819 2821 2823 2824 2826 2828 2830 2831 2832 2834 2835 2836 2838 2839 2841 2843 2844 2845 2846 2849 2850 2852 2854 2854 2856 2858 2859 2860 2861 2861 2861 2861 2862 2862 2863 2864 2866 2867 2867 2867 2867 2868 2868 2869 2871 2872 2874 2875 2878 2880 2882 2884 2886 2889 2891 2893 2895 2896 2898 2899 2901 2902 2904 2905 2907 2909 2910 2911 2913 2914 2916 2918 2920 2922
2795 2797 2798 2800 2802 2804 2805 2807 2809 2811 2813 2815 2817 2819 2821 2822 2824 2826 2827 2829 2830 2831 2833 2834 2836 2837 2839 2840 2841 2843 2845 2848 2849 2851 2852 2853 2855 2857 2858 2859 2859 2860 2860 2859 2860 2860 2861 2863 2864 2865 2866 2866 2866 2867 2868 2869 2870 2872 2873 2874 2876 2878 2880 2882 2884 2886 2888 2890 2891 2893 2894 2896 2897 2899 2901 2902 2904 2905 2907 2909 2910 2912 2914 2916 2918 2920
2793 2795 2797 2798 2800 2802 2804 2806 2808 2809 2811 2813 2815 2817 2819 2820 2822 2824 2825 2826 2828 2829 2831 2832 2834 2835 2837 2838 2840 2842 2844 2846 2848 2849 2850 2852 2854 2855 2856 2857 2858 2858 2858 2858 2858 2859 2860 2861 2863 2864 2865 2865 2866 2867 2867 2868 2869 2871 2872 2874 2875 2877 2879 2880 2882 2884 2885 2886 2888 2890 2891 2893 2894 2896 2898 2900 2902 2904 2905 2907 2909 2911 2913 2914 2916 2919
2792 2794 2795 2797 2799 2800 2802 2804 2806 2808 2809 2811 2813 2815 2816 2818 2819 2821 2823 2824 2825 2827 2829 2830 2832 2833 2834 2836 2838 2840 2842 2844 2845 2847 2849 2850 2852 2853 2854 2855 2856 2857 2857 2857 2857 2858 2859 2860 2861 2862 2863 2864 2865 2866 2867 2867 2869 2870 2871 2873 2874 2876 2878 2879 2880 2881 2883 2884 2885 2887 2889 2890 2892 2894 2896 2898 2900 2901 2903 2905 2907 2909 2911 2913 2915 2917
2791 2792 2794 2796 2798 2799 2801 2803 2804 2806 2808 2809 2811 2813 2814 2816 2817 2819 2820 2821 2823 2824 2826 2828 2830 2831 2833 2834 2836 2838 2840 2842 2844 2845 2847 2849 2850 2851 2853 2854 2854 2855 2855 2855 2856 2856 2857 2858 2859 2860 2862 2863 2864 2865 2866 2867 2868 2869 2871 2873 2874 2876 2877 2878 2879 2880 2881 2882 2884 2885 2887 2889 2890 2892 2894 2896 2898 2899 2901 2903 2905 2907 2909 2911 2913 2915
2790 2792 2794 2795 2797 2798 2799 2801 2803 2804 2806 2807 2809 2811 2812 2814 2815 2817 2818 2819 2820 2822 2824 2826 2828 2829 2831 2833 2835 2837 2839 2841 2842 2844 2845 2847 2848 2850 2851 2852 2853 2854 2854 2854 2855 2855 2856 2857 2858 2859 2860 2861 2863 2864 2865 2867 2868 2869 2871 2873 2874 2876 2877 2878 2879 2879 2880 2881 2882 2884 2885 2887 2889 2890 2893 2894 2896 2898 2899 2901 2903 2905 2907 2909 2911 2913
2789 2791 2792 2794 2795 2797 2798 2799 2801 2802 2804 2805 2807 2809 2810 2812 2814 2815 2816 2817 2819 2820 2822 2824 2826 2828 2829 2832 2834 2836 2838 2839 2841 2842 2843 2844 2846 2848 2849 2850 2851 2852 2853 2853 2854 2854 2855 2856 2856 2857 2858 2859 2861 2863 2865 2866 2868 2869 2871 2873 2874 2876 2876 2877 2878 2879 2880 2880 2881 2883 2884 2886 2887 2889 2891 2893 2894 2896 2898 2900 2902 2904 2905 2908 2909 2911
2788 2789 2791 2792 2794 2795 2796 2798 2799 2800 2802 2803 2805 2807 2809 2811 2813 2814 2815 2816 2817 2819 2820 2822 2824 2825 2828 2830 2832 2834 2835 2837 2838 2839 2841 2842 2844 2845 2847 2848 2849 2850 2851 2852 2853 2854 2854 2855 2855 2856 2857 2859 2861 2863 2864 2866 2867 2869 2870 2872 2874 2875 2876 2876 2877 2878 2879 2879 2880 2881 2883 2885 2886 2888 2890 2891 2893 2894 2896 2898 2900 2902 2904 2906 2908 2910
2787 2788 2789 2791 2792 2794 2795 2796 2797 2798 2799 2801 2804 2806 2808 2809 2811 2812 2814 2814 2815 2817 2818 2819 2820 2822 2825 2828 2830 2831 2833 2834 2836 2838 2839 2840 2842 2843 2845 2846 2847 2849 2850 2851 2852 2852 2853 2854 2854 2856 2857 2859 2860 2862 2864 2865 2867 2868 2869 2871 2873 2874 2875 2876 2876 2877 2878 2879 2879 2881 2882 2884 2885 2887 2889 2890 2892 2893 2895 2897 2899 2901 2903 2904 2907 2909
2786 2787 2788 2789 2790 2792 2793 2794 2795 2796 2798 2800 2802 2804 2806 2808 2810 2811 2812 2813 2813 2814 2815 2816 2818 2820 2822 2825 2827 2829 2831 2833 2834 2836 2838 2839 2840 2842 2843 2845 2846 2847 2848 2849 2850 2851 2852 2853 2854 2855 2857 2858 2860 2861 2863 2865 2867 2868 2869 2871 2873 2874 2875 2876 2876 2877 2878 2879 2879 2880 2882 2883 2884 2886 2887 2889 2890 2892 2894 2896 2898 2900 2902 2904 2906 2908
2784 2785 2786 2787 2789 2790 2791 2792 2794 2795 2796 2799 2801 2803 2805 2806 2808 2809 2810 2810 2811 2812 2813 2814 2816 2818 2820 2823 2825 2827 2829 2832 2834 2835 2837 2838 2839 2840 2842 2843 2844 2846 2847 2848 2849 2850 2851 2852 2853 2855 2857 2858 2860 2861 2863 2865 2867 2869 2870 2872 2874 2875 2876 2876 2877 2877 2878 2879 2879 2880 2881 2883 2884 2885 2886 2888 2889 2891 2894 2895 2898 2899 2902 2904 2906 2908
2783 2783 2784 2785 2787 2788 2789 2790 2792 2794 2795 2798 2800 2802 2804 2805 2806 2808 2808 2809 2810 2811 2812 2813 2814 2815 2818 2821 2824 2826 2829 2831 2833 2834 2835 2836 2837 2839 2840 2841 2843 2844 2845 2846 2847 2849 2850 2851 2853 2854 2856 2859 2860 2862 2863 2865 2867 2869 2871 2872 2874 2875 2876 2876 2877 2877 2878 2879 2880 2881 2882 2882 2883 2884 2886 2887 2889 2891 2893 2895 2897 2899 2901 2903 2905 2907
2781 2781 2782 2784 2785 2787 2788 2789 2791 2793 2795 2797 2799 2801 2803 2804 2806 2807 2808 2809 2810 2811 2812 2812 2813 2814 2817 2819 2822 2825 2828 2829 2831 2832 2833 2834 2836 2837 2839 2840 2841 2843 2844 2845 2846 2848 2849 2851 2853 2855 2857 2859 2861 2862 2864 2865 2867 2869 2870 2872 2874 2875 2875 2876 2876 2877 2878 2879 2880 2881 2882 2883 2883 2884 2886 2887 2889 2891 2893 2895 2897 2899 2901 2903 2905 2906
2779 2780 2782 2784 2785 2787 2788 2789 2791 2793 2794 2796 2798 2800 2802 2804 2806 2808 2809 2810 2811 2812 2812 2812 2813 2815 2817 2819 2822 2824 2826 2828 2829 2830 2832 2833 2834 2836 2837 2839 2840 2842 2843 2845 2846 2848 2849 2851 2853 2855 2857 2859 2861 2863 2864 2865 2867 2868 2870 2872 2874 2874 2875 2876 2877 2878 2879 2879 2880 2881 2882 2883 2883 2884 2885 2887 2889 2891 2893 2894 2896 2899 2900 2902 2904 2906
2779 2781 2783 2784 2785 2787 2788 2789 2791 2792 2794 2796 2798 2800 2802 2804 2806 2809 2810 2811 2813 2813 2813 2813 2814 2816 2819 2820 2822 2824 2825 2826 2828 2829 2831 2833 2834 2835 2837 2838 2839 2841 2843 2844 2846 2848 2849 2851 2853 2855 2857 2859 2861 2863 2864 2865 2866 2868 2869 2871 2873 2874 2876 2877 2877 2878 2879 2880 2880 2881 2882 2883 2883 2884 2885 2887 2889 2890 2892 2894 2896 2898 2900 2901 2903 2905
2780 2782 2784 2785 2786 2787 2788 2789 2791 2792 2794 2796 2798 2800 2802 2805 2807 2809 2811 2812 2813 2814 2814 2815 2817 2819 2820 2822 2823 2824 2826 2827 2828 2830 2831 2833 2834 2836 2837 2839 2840 2841 2843 2844 2846 2848 2850 2852 2853 2855 2857 2859 2860 2862 2864 2865 2866 2868 2869 2871 2872 2874 2875 2876 2877 2878 2879 2880 2880 2881 2881 2882 2883 2884 2885 2887 2889 2890 2892 2894 2896 2897 2899 2901 2902 2904
2782 2783 2784 2785 2786 2787 2789 2790 2792 2793 2794 2796 2798 2801 2803 2806 2808 2810 2812 2814 2814 2815 2816 2817 2819 2821 2822 2824 2825 2826 2827 2828 2829 2831 2832 2834 2835 2836 2838 2839 2841 2842 2843 2844 2846 2848 2850 2852 2854 2855 2857 2859 2860 2862 2864 2865 2866 2868 2869 2871 2872 2874 2875 2876 2877 2878 2879 2879 2880 2880 2881 2882 2883 2884 2885 2887 2889 2890 2892 2894 2895 2897 2899 2900 2902 2903
2783 2784 2785 2786 2788 2789 2791 2793 2794 2796 2797 2799 2800 2802 2805 2807 2809 2812 2813 2814 2815 2816 2818 2819 2820 2822 2824 2825 2827 2828 2829 2830 2831 2832 2834 2835 2836 2837 2839 2840 2841 2843 2844 2845 2847 2849 2850 2852 2854 2856 2858 2860 2861 2862 2864 2865 2867 2868 2869 2871 2873 2874 2875 2876 2877 2878 2879 2879 2879 2880 2881 2882 2883 2884 2885 2887 2888 2890 2891 2893 2895 2896 2898 2899 2901 2903
2785 2786 2788 2789 2790 2792 2794 2796 2798 2799 2801 2802 2803 2805 2807 2809 2811 2813 2814 2816 2817 2818 2819 2821 2822 2824 2825 2826 2828 2829 2831 2832 2833 2834 2835 2836 2838 2839 2840 2841 2842 2844 2845 2846 2848 2849 2851 2853 2854 2856 2859 2861 2863 2864 2865 2866 2867 2869 2870 2872 2873 2874 2875 2876 2877 2877 2878 2879 2879 2880 2881 2882 2883 2884 2886 2887 2889 2890 2891 2893 2894 2896 2897 2899 2900 2902
2788 2789 2791 2793 2794 2796 2797 2799 2801 2803 2804 2805 2807 2808 2809 2811 2813 2814 2816 2817 2818 2820 2821 2823 2824 2825 2826 2828 2829 2831 2832 2834 2835 2836 2837 2839 2840 2841 2842 2843 2844 2845 2847 2848 2849 2851 2852 2854 2855 2857 2859 2861 2863 2864 2866 2867 2868 2869 2870 2872 2873 2874 2875 2876 2877 2877 2878 2878 2879 2880 2881 2882 2883 2884 2886 2887 2889 2890 2891 2892 2894 2895 2897 2898 2899 2901
2791 2793 2794 2796 2798 2799 2801 2803 2804 2805 2807 2808 2809 2810 2812 2813 2815 2816 2818 2819 2820 2821 2823 2824 2826 2827 2828 2829 2831 2832 2834 2835 2837 2838 2839 2840 2842 2843 2844 2845 2847 2848 2849 2850 2851 2853 2854 2855 2857 2858 2859 2861 2863 2864 2866 2867 2869 2870 2871 2872 2873 2874 2875 2875 2876 2877 2878 2878 2879 2880 2881 2882 2883 2884 2886 2887 2889 2889 2891 2892 2893 2894 2896 2897 2899 2900